When you browse on this site, cookies collect data to enhance your experience and personalize the content and advertising you see.
Visit our Privacy Policy to learn more. By continuing to use the site, you agree to this use of cookies and data.

Hourly Weather Newport

Today, 24 September, Thursday

Time Temperature Precipitation Wind Pressure Humidity
00:00 +9°C° 0 mm 7 mps 747 mmHg 79%
01:00 +10°C° 0.1 mm 8 mps 747 mmHg 78%
02:00 +10°C° 0.1 mm 9 mps 746 mmHg 77%
03:00 +11°C° 0.1 mm 11 mps 746 mmHg 75%
04:00 +11°C° 1.2 mm 11 mps 745 mmHg 76%
05:00 +11°C° 1.2 mm 11 mps 745 mmHg 76%
06:00 +11°C° 1.2 mm 11 mps 744 mmHg 76%
07:00 +11°C° 0.2 mm 10 mps 744 mmHg 72%
08:00 +12°C° 0.2 mm 10 mps 744 mmHg 68%
09:00 +12°C° 0.2 mm 10 mps 744 mmHg 64%
10:00 +12°C° 0.1 mm 10 mps 744 mmHg 62%
11:00 +13°C° 0.1 mm 10 mps 744 mmHg 60%
12:00 +13°C° 0.1 mm 11 mps 744 mmHg 58%
13:00 +13°C° 0.4 mm 10 mps 744 mmHg 59%
14:00 +12°C° 0.4 mm 9 mps 743 mmHg 60%
15:00 +12°C° 0.4 mm 8 mps 743 mmHg 61%
16:00 +11°C° 0.3 mm 8 mps 742 mmHg 63%
17:00 +10°C° 0.3 mm 8 mps 742 mmHg 65%
18:00 +10°C° 0.3 mm 8 mps 742 mmHg 67%
19:00 +9°C° 0.3 mm 7 mps 742 mmHg 70%
20:00 +9°C° 0.3 mm 6 mps 741 mmHg 73%
21:00 +8°C° 0.3 mm 6 mps 741 mmHg 75%
22:00 +8°C° 2 mm 5 mps 741 mmHg 80%
23:00 +8°C° 2 mm 4 mps 742 mmHg 84%

Tomorrow, 25 September, Friday

Time Temperature Precipitation Wind Pressure Humidity
00:00 +9°C° 2 mm 3 mps 742 mmHg 88%
01:00 +8°C° 0.6 mm 5 mps 742 mmHg 86%
02:00 +6°C° 0.6 mm 7 mps 743 mmHg 84%
03:00 +5°C° 0.6 mm 8 mps 743 mmHg 82%
04:00 +5°C° 0 mm 9 mps 745 mmHg 83%
05:00 +5°C° 0 mm 9 mps 746 mmHg 84%
06:00 +5°C° 0 mm 9 mps 747 mmHg 86%
07:00 +6°C° 0 mm 10 mps 749 mmHg 81%
08:00 +8°C° 0 mm 10 mps 750 mmHg 75%
09:00 +9°C° 0 mm 10 mps 751 mmHg 70%
10:00 +11°C° 0 mm 10 mps 752 mmHg 64%
11:00 +11°C° 0 mm 10 mps 753 mmHg 58%
12:00 +12°C° 0 mm 10 mps 754 mmHg 52%
13:00 +12°C° 0 mm 10 mps 754 mmHg 52%
14:00 +13°C° 0 mm 10 mps 755 mmHg 52%
15:00 +13°C° 0 mm 10 mps 755 mmHg 52%
16:00 +12°C° 0 mm 9 mps 756 mmHg 57%
17:00 +11°C° 0 mm 9 mps 756 mmHg 62%
18:00 +10°C° 0 mm 8 mps 757 mmHg 66%
19:00 +9°C° 0 mm 8 mps 757 mmHg 69%
20:00 +9°C° 0 mm 8 mps 758 mmHg 72%
21:00 +7°C° 0 mm 8 mps 759 mmHg 75%
22:00 +7°C° 0 mm 8 mps 759 mmHg 74%
23:00 +6°C° 0 mm 8 mps 759 mmHg 73%

Day after tomorrow, 26 September, Saturday

Time Temperature Precipitation Wind Pressure Humidity
00:00 +6°C° 0 mm 9 mps 759 mmHg 72%
01:00 +5°C° 0 mm 8 mps 759 mmHg 73%
02:00 +5°C° 0 mm 8 mps 759 mmHg 73%
03:00 +5°C° 0 mm 8 mps 759 mmHg 74%
04:00 +4°C° 0 mm 7 mps 759 mmHg 74%
05:00 +4°C° 0 mm 6 mps 759 mmHg 74%
06:00 +4°C° 0 mm 6 mps 759 mmHg 74%
07:00 +5°C° 0 mm 6 mps 759 mmHg 70%
08:00 +8°C° 0 mm 6 mps 758 mmHg 66%
09:00 +9°C° 0 mm 5 mps 758 mmHg 61%
10:00 +10°C° 0 mm 5 mps 758 mmHg 61%
11:00 +10°C° 0 mm 5 mps 757 mmHg 60%
12:00 +10°C° 0 mm 5 mps 757 mmHg 59%
13:00 +12°C° 0 mm 4 mps 757 mmHg 57%
14:00 +12°C° 0 mm 4 mps 756 mmHg 55%
15:00 +13°C° 0 mm 3 mps 756 mmHg 52%
16:00 +12°C° 0 mm 3 mps 756 mmHg 56%
17:00 +11°C° 0 mm 4 mps 756 mmHg 60%
18:00 +10°C° 0 mm 4 mps 756 mmHg 65%
19:00 +8°C° 0 mm 4 mps 756 mmHg 67%
20:00 +7°C° 0 mm 5 mps 757 mmHg 69%
21:00 +7°C° 0 mm 5 mps 757 mmHg 71%
22:00 +6°C° 0 mm 5 mps 757 mmHg 73%
23:00 +5°C° 0 mm 6 mps 757 mmHg 74%

27 September, Sunday

Time Temperature Precipitation Wind Pressure Humidity
00:00 +5°C° 0 mm 6 mps 757 mmHg 76%
01:00 +5°C° 0 mm 6 mps 757 mmHg 76%
02:00 +4°C° 0 mm 6 mps 757 mmHg 77%
03:00 +4°C° 0 mm 6 mps 757 mmHg 78%
04:00 +4°C° 0 mm 6 mps 757 mmHg 80%
05:00 +4°C° 0 mm 6 mps 757 mmHg 81%
06:00 +3°C° 0 mm 6 mps 757 mmHg 83%
07:00 +5°C° 0 mm 6 mps 757 mmHg 78%
08:00 +7°C° 0 mm 6 mps 757 mmHg 74%
09:00 +8°C° 0 mm 6 mps 757 mmHg 70%
10:00 +10°C° 0 mm 6 mps 757 mmHg 67%
11:00 +11°C° 0 mm 6 mps 758 mmHg 63%
12:00 +13°C° 0 mm 6 mps 758 mmHg 60%
13:00 +13°C° 0 mm 6 mps 757 mmHg 60%
14:00 +13°C° 0 mm 5 mps 757 mmHg 59%
15:00 +14°C° 0 mm 5 mps 757 mmHg 59%
16:00 +13°C° 0 mm 5 mps 757 mmHg 63%
17:00 +12°C° 0 mm 4 mps 757 mmHg 67%
18:00 +11°C° 0 mm 4 mps 758 mmHg 71%
19:00 +10°C° 0 mm 4 mps 758 mmHg 73%
20:00 +8°C° 0 mm 4 mps 758 mmHg 75%
21:00 +7°C° 0 mm 4 mps 758 mmHg 77%
22:00 +7°C° 0 mm 4 mps 758 mmHg 78%
23:00 +7°C° 0 mm 4 mps 758 mmHg 79%

28 September, Monday

Time Temperature Precipitation Wind Pressure Humidity
00:00 +6°C° 0 mm 4 mps 757 mmHg 79%
01:00 +6°C° 0 mm 4 mps 757 mmHg 79%
02:00 +7°C° 0 mm 3 mps 757 mmHg 78%
03:00 +7°C° 0 mm 3 mps 756 mmHg 77%
04:00 +7°C° 0 mm 3 mps 756 mmHg 75%
05:00 +7°C° 0 mm 2 mps 756 mmHg 73%
06:00 +7°C° 0 mm 2 mps 756 mmHg 71%
07:00 +9°C° 0 mm 2 mps 756 mmHg 72%
08:00 +12°C° 0 mm 2 mps 756 mmHg 72%
09:00 +13°C° 0 mm 3 mps 756 mmHg 73%
10:00 +14°C° 0 mm 4 mps 756 mmHg 77%
11:00 +15°C° 0 mm 5 mps 755 mmHg 81%
12:00 +16°C° 0 mm 6 mps 755 mmHg 85%
13:00 +17°C° 0 mm 6 mps 754 mmHg 83%
14:00 +17°C° 0 mm 7 mps 754 mmHg 80%
15:00 +17°C° 0 mm 7 mps 753 mmHg 77%
16:00 +17°C° 0.3 mm 7 mps 753 mmHg 83%
17:00 +16°C° 0.3 mm 7 mps 753 mmHg 88%
18:00 +15°C° 0.3 mm 7 mps 753 mmHg 93%
19:00 +13°C° 0.4 mm 8 mps 753 mmHg 91%
20:00 +12°C° 0.4 mm 8 mps 753 mmHg 88%
21:00 +11°C° 0.4 mm 8 mps 754 mmHg 85%
22:00 +10°C° 0 mm 8 mps 754 mmHg 86%
23:00 +10°C° 0 mm 8 mps 754 mmHg 87%

29 September, Tuesday

Time Temperature Precipitation Wind Pressure Humidity
00:00 +10°C° 0 mm 7 mps 754 mmHg 88%
01:00 +9°C° 0 mm 7 mps 755 mmHg 89%
02:00 +9°C° 0 mm 7 mps 755 mmHg 90%
03:00 +9°C° 0 mm 6 mps 755 mmHg 90%
04:00 +8°C° 0 mm 6 mps 755 mmHg 90%
05:00 +8°C° 0 mm 6 mps 755 mmHg 89%
06:00 +7°C° 0 mm 6 mps 755 mmHg 89%
07:00 +9°C° 0 mm 6 mps 756 mmHg 84%
08:00 +10°C° 0 mm 6 mps 756 mmHg 80%
09:00 +12°C° 0 mm 5 mps 756 mmHg 75%
10:00 +13°C° 0 mm 6 mps 756 mmHg 72%
11:00 +14°C° 0 mm 6 mps 756 mmHg 69%
12:00 +15°C° 0 mm 6 mps 756 mmHg 66%
13:00 +15°C° 0.1 mm 7 mps 756 mmHg 66%
14:00 +15°C° 0.1 mm 7 mps 755 mmHg 67%
15:00 +15°C° 0.1 mm 7 mps 755 mmHg 67%
16:00 +14°C° 0.1 mm 6 mps 755 mmHg 70%
17:00 +13°C° 0.1 mm 6 mps 755 mmHg 73%
18:00 +12°C° 0.1 mm 5 mps 755 mmHg 76%
19:00 +11°C° 0 mm 4 mps 755 mmHg 78%
20:00 +10°C° 0 mm 3 mps 755 mmHg 80%
21:00 +10°C° 0 mm 3 mps 755 mmHg 82%
22:00 +9°C° 0 mm 3 mps 755 mmHg 83%
23:00 +9°C° 0 mm 2 mps 754 mmHg 83%
Show more